Home   Weather   Launceston   Past weeks

Flag for Australia Past Weather in Launceston, Tasmania, Australia — Yesterday and Last 2 Weeks

Now
59 °F

Overcast.


Feels Like: 58 °F
Forecast: 40 / 53 °F
Wind: 6 mph from North

Location: Launceston Airport

Current Time: Apr 25, 2017 at 1:05:05 pm

Latest Report: Apr 25, 2017 at 12:30 pm


Visibility: N/A

Pressure: 29.59 "Hg

Humidity: 82%

Dew Point: 54 °F

Location of LauncestonLocation

Past Weather in Launceston — Graph

°F

Launceston Temperature Yesterday

Maximum temperature yesterday: 64 °F (at 1:30 pm)
Minimum temperature yesterday: 52 °F (at 4:00 am)
Average temperature yesterday: 57 °F

High & Low Weather Summary for the Past Weeks

 TemperatureHumidityPressure
High75 °F (Apr 20, 1:00 pm)100% (Apr 17, 4:30 am)30.42 "Hg (Apr 17, 4:30 am)
Low36 °F (Apr 15, 6:30 am)36% (Apr 14, 1:00 pm)29.59 "Hg (Apr 25, 12:00 pm)
Average54 °F78%30.17 "Hg
* Reported Apr 10 12:00 pm — Apr 25 12:00 pm, Launceston, Weather by CustomWeather, © 2017

Note: Actual official high and low records may vary slightly from our data, if they occured in-between our weather recording intervals... More about our weather records

Advertising

Launceston Weather History for the Previous 24 Hours

Scroll right to see more
 ConditionsComfort  
Time TempWeatherWind HumidityBarometerVisibility
12:00 pm
Tue, Apr 25
57 °FMostly cloudy.6 mph94%29.59 "HgN/A
11:00 am57 °FPartly sunny.3 mph94%29.65 "HgN/A
10:02 am57 °FLow clouds.5 mph94%29.65 "Hg5 mi
9:38 am55 °FMostly cloudy.3 mph100%29.68 "Hg4 mi
9:00 am55 °FMore clouds than sun.3 mph100%29.68 "HgN/A
8:30 am55 °FBroken clouds.1 mph100%29.71 "Hg5 mi
8:22 am55 °FScattered clouds.No wind100%29.71 "Hg5 mi
8:00 am55 °FMostly cloudy.1 mph100%29.71 "Hg2 mi
7:30 am55 °FCloudy.3 mph94%29.71 "Hg0 mi
7:00 am55 °FMore clouds than sun.No wind94%29.71 "Hg3 mi
6:00 am55 °FLight rain. Overcast.3 mph94%29.71 "HgN/A
5:30 am55 °FLight rain. Mostly cloudy.3 mph94%29.71 "Hg1 mi
5:00 am55 °FRain. Mostly cloudy.5 mph100%29.74 "Hg1 mi
4:30 am55 °FRain. Partly cloudy.5 mph100%29.74 "Hg1 mi
4:24 am55 °FRain. Partly cloudy.6 mph100%29.74 "Hg0 mi
4:00 am55 °FRain. Mostly cloudy.6 mph100%29.77 "Hg0 mi
3:30 am57 °FRain. Partly cloudy.6 mph94%29.77 "Hg3 mi
3:00 am57 °FRain. Mostly cloudy.6 mph94%29.77 "Hg3 mi
2:44 am57 °FRain. Partly cloudy.8 mph94%29.80 "Hg4 mi
2:30 am57 °FLight rain. Partly cloudy.7 mph94%29.80 "Hg4 mi
2:09 am57 °FLight rain. Mostly cloudy.8 mph94%29.80 "Hg4 mi
2:00 am57 °FLight rain. Overcast.8 mph94%29.80 "Hg5 mi
1:30 am57 °FLight rain. Partly cloudy.9 mph94%29.83 "Hg4 mi
1:05 am57 °FDrizzle. Mostly cloudy.8 mph94%29.83 "Hg6 mi
12:30 am57 °FMostly cloudy.9 mph94%29.86 "Hg5 mi
12:22 am57 °FPartly cloudy.9 mph94%29.86 "Hg5 mi
12:00 am57 °FOvercast.8 mph100%29.86 "Hg4 mi
11:30 pm
Mon, Apr 24
57 °FOvercast.8 mph100%29.89 "Hg3 mi
11:18 pm57 °FPartly cloudy.8 mph100%29.89 "Hg4 mi
11:00 pm57 °FMostly cloudy.8 mph100%29.89 "Hg4 mi
10:40 pm57 °FPartly cloudy.7 mph100%29.89 "Hg3 mi
10:20 pm57 °FOvercast.7 mph94%29.92 "Hg1 mi
10:00 pm57 °FOvercast.6 mph100%29.92 "Hg0 mi
9:30 pm57 °FPartly cloudy.7 mph94%29.92 "HgN/A
9:00 pm59 °FPartly cloudy.9 mph94%29.92 "HgN/A
8:30 pm59 °FPartly cloudy.9 mph94%29.92 "HgN/A
8:07 pm57 °FPartly cloudy.8 mph100%29.92 "Hg5 mi
8:00 pm57 °FPartly cloudy.8 mph100%29.92 "Hg4 mi
7:30 pm57 °FPartly cloudy.8 mph94%29.95 "Hg5 mi
7:00 pm59 °FOvercast.8 mph94%29.95 "HgN/A
6:30 pm59 °FPassing clouds.9 mph94%29.95 "Hg6 mi
6:11 pm59 °FPassing clouds.9 mph94%29.95 "Hg4 mi
6:10 pm59 °FPassing clouds.9 mph94%29.95 "Hg4 mi
5:30 pm59 °FMostly cloudy.8 mph94%29.95 "HgN/A
5:00 pm59 °FRain. Broken clouds.13 mph94%29.95 "HgN/A
4:30 pm61 °FScattered clouds.14 mph88%29.95 "HgN/A
4:00 pm61 °FBroken clouds.13 mph88%29.98 "HgN/A
3:30 pm61 °FSprinkles. Broken clouds.12 mph88%29.98 "HgN/A
3:00 pm63 °FMore clouds than sun.13 mph77%29.98 "HgN/A
2:30 pm64 °FScattered clouds.10 mph73%29.98 "HgN/A
1:30 pm64 °FBroken clouds.8 mph78%30.01 "HgN/A
Weather by CustomWeather, © 2017

See weather overviewHow to use our weather pages